Home   Weather   Roskilde   Past weeks

Flag for Denmark Past Weather in Roskilde, Denmark — Yesterday and Last 2 Weeks

Now
34 °F

Clear.


Feels Like: 34 °F
Forecast: 31 / 46 °F
Wind: 1 mph from Southwest

Location: Koebenhavn / Roskilde

Current Time: Dec 6, 2016 at 5:09:32 pm

Latest Report: Dec 6, 2016 at 4:20 pm


Visibility: 10 mi

Pressure: 30.45 "Hg

Humidity: 93%

Dew Point: 32 °F

Location of RoskildeLocation

Past Weather in Roskilde — Graph

°F

Roskilde Temperature Yesterday

Maximum temperature yesterday: 43 °F (at 12:50 pm)
Minimum temperature yesterday: 37 °F (at 12:20 am)
Average temperature yesterday: 41 °F

High & Low Weather Summary for the Past Weeks

 TemperatureHumidityPressure
High50 °F (Nov 23, 11:20 am)100% (Nov 22, 12:50 am)30.48 "Hg (Nov 22, 12:50 am)
Low25 °F (Nov 28, 7:20 pm)48% (Nov 27, 6:20 pm)29.62 "Hg (Dec 1, 5:50 pm)
Average40 °F87%30.10 "Hg
* Reported Nov 21 3:24 pm — Dec 6 3:50 pm, Roskilde, Weather by CustomWeather, © 2016

Note: Actual official high and low records may vary slightly from our data, if they occured in-between our weather recording intervals... More about our weather records

Advertising

Roskilde Weather History for the Previous 24 Hours

Scroll right to see more
 ConditionsComfort  
Time TempWeatherWind HumidityBarometerVisibility
3:50 pm
Tue, Dec 6
36 °FChilly.2 mph87%30.45 "HgN/A
3:20 pm37 °FChilly.3 mph87%30.45 "HgN/A
2:50 pm39 °FChilly.1 mph81%30.42 "HgN/A
2:20 pm39 °FChilly.3 mph75%30.42 "HgN/A
1:50 pm41 °FQuite cool.2 mph70%30.42 "HgN/A
1:20 pm41 °FQuite cool.2 mph76%30.42 "HgN/A
12:50 pm41 °FQuite cool.No wind70%30.42 "HgN/A
12:20 pm39 °FChilly.2 mph75%30.42 "HgN/A
11:50 am37 °FChilly.3 mph87%30.42 "HgN/A
11:20 am36 °FChilly.2 mph100%30.39 "HgN/A
10:50 am34 °FFog.2 mph100%30.39 "Hg0 mi
10:20 am34 °FFog.3 mph100%30.39 "Hg0 mi
9:50 am34 °FFog.3 mph100%30.36 "Hg0 mi
9:20 am36 °FFog.3 mph100%30.36 "Hg0 mi
8:50 am36 °FLight rain. Fog.3 mph100%30.36 "Hg0 mi
8:20 am36 °FFog.2 mph100%30.33 "Hg0 mi
7:50 am37 °FFog.3 mph100%30.33 "Hg0 mi
7:20 am37 °FFog.2 mph100%30.30 "Hg0 mi
6:50 am39 °FFog.3 mph100%30.30 "Hg0 mi
6:20 am39 °FFog.5 mph100%30.27 "Hg1 mi
5:50 am39 °FFog.2 mph100%30.27 "Hg2 mi
5:20 am39 °FPartly cloudy.2 mph100%30.27 "Hg4 mi
4:50 am39 °FPassing clouds.3 mph93%30.24 "Hg4 mi
4:20 am39 °FPassing clouds.3 mph100%30.24 "HgN/A
3:50 am41 °FPartly cloudy.6 mph93%30.24 "HgN/A
3:20 am41 °FPartly cloudy.6 mph93%30.21 "HgN/A
2:50 am41 °FLow clouds.7 mph93%30.21 "HgN/A
2:20 am41 °FPassing clouds.6 mph93%30.21 "HgN/A
1:50 am41 °FOvercast.8 mph93%30.18 "HgN/A
1:20 am41 °FMostly cloudy.8 mph93%30.18 "HgN/A
12:50 am41 °FMostly cloudy.8 mph93%30.18 "HgN/A
12:20 am41 °FMostly cloudy.10 mph93%30.18 "HgN/A
11:50 pm
Mon, Dec 5
41 °FMostly cloudy.9 mph93%30.18 "HgN/A
11:20 pm41 °FMostly cloudy.12 mph87%30.15 "HgN/A
10:50 pm41 °FOvercast.10 mph87%30.15 "HgN/A
10:20 pm41 °FPassing clouds.13 mph87%30.15 "HgN/A
9:50 pm41 °FPartly cloudy.14 mph87%30.15 "HgN/A
9:20 pm41 °FPartly cloudy.15 mph87%30.15 "HgN/A
8:50 pm41 °FMostly cloudy.14 mph87%30.15 "HgN/A
8:20 pm41 °FPassing clouds.16 mph93%30.15 "HgN/A
7:50 pm41 °FMostly cloudy.15 mph93%30.15 "HgN/A
7:20 pm41 °FMostly cloudy.16 mph93%30.15 "HgN/A
6:50 pm41 °FPassing clouds.16 mph93%30.15 "HgN/A
6:20 pm39 °FPassing clouds.15 mph93%30.15 "HgN/A
5:50 pm41 °FPassing clouds.13 mph87%30.15 "HgN/A
5:20 pm41 °FPassing clouds.17 mph93%30.15 "HgN/A
Weather by CustomWeather, © 2016

See weather overviewHow to use our weather pages